QPF
0.00 0.00 0.00 0.00 0.00 0.00 0.00 0.00 0.00 0.00 0.00 0.00 0.00 0.00 0.00 0.00 0.00 0.00 0.00 0.00 0.00 0.00 0.00 0.00 0.00 0.00 0.00 0.00 0.00 0.00 0.00 0.00 0.00 0.00 0.00 0.00 0.00 0.00 0.00 0.00 0.00 0.00 0.00
0.00 0.00 0.00 0.00 0.00 0.00 0.00 0.00 0.00 0.00 0.00 0.00 0.00 0.00 0.00 0.00 0.00 0.00 0.00 0.00 0.00 0.00 0.00 0.00 0.00 0.00 0.00 0.00 0.00 0.00 0.00 0.00 0.00 0.00 0.00 0.00 0.00 0.00 0.00 0.00 0.00 0.00 0.00
0.00 0.00 0.00 0.00 0.00 0.00 0.00 0.00 0.00 0.00 0.00 0.00 0.00 0.00 0.00 0.00 0.00 0.00 0.00 0.00 0.00 0.00 0.00 0.00 0.00 0.00 0.00 0.00 0.00 0.00 0.00 0.00 0.00 0.00 0.00 0.00 0.00 0.00 0.00 0.00 0.00 0.00 0.00
0.00 0.00 0.00 0.00 0.00 0.00 0.00 0.00 0.00 0.00 0.00 0.00 0.00 0.00 0.00 0.00 0.00 0.00 0.00 0.00 0.00 0.00 0.00 0.00 0.00 0.00 0.00 0.00 0.00 0.00 0.00 0.00 0.00 0.00 0.00 0.01 0.01 0.00 0.00 0.00 0.00 0.00 0.00
0.00 0.00 0.00 0.00 0.00 0.00 0.00 0.00 0.00 0.00 0.00 0.00 0.00 0.00 0.00 0.00 0.00 0.00 0.00 0.00 0.00 0.00 0.00 0.00 0.00 0.00 0.00 0.01 0.01 0.00 0.00 0.00 0.00 0.00 0.00 0.00 0.00 0.01 0.00 0.00 0.00 0.00 0.00
0.00 0.00 0.00 0.00 0.00 0.00 0.00 0.00 0.00 0.00 0.00 0.00 0.00 0.00 0.00 0.00 0.00 0.00 0.01 0.01 0.01 0.01 0.00 0.00 0.00 0.00 0.02 0.05 0.07 0.06 0.03 0.01 0.00 0.00 0.00 0.00 0.00 0.00 0.00 0.01 0.02 0.03 0.01
0.00 0.00 0.00 0.00 0.00 0.00 0.00 0.00 0.00 0.00 0.00 0.00 0.00 0.00 0.00 0.00 0.00 0.02 0.03 0.02 0.02 0.02 0.01 0.01 0.01 0.01 0.01 0.00 0.01 0.03 0.04 0.05 0.04 0.02 0.00 0.00 0.00 0.00 0.00 0.01 0.02 0.03 0.03
0.00 0.00 0.00 0.00 0.00 0.00 0.00 0.00 0.00 0.00 0.00 0.00 0.00 0.00 0.00 0.00 0.01 0.03 0.04 0.02 0.01 0.01 0.00 0.00 0.00 0.00 0.01 0.01 0.00 0.00 0.00 0.00 0.00 0.01 0.00 0.00 0.00 0.00 0.01 0.01 0.02 0.03 0.06
0.00 0.00 0.00 0.00 0.00 0.00 0.00 0.00 0.00 0.00 0.00 0.00 0.00 0.00 0.00 0.00 0.01 0.02 0.03 0.01 0.01 0.01 0.01 0.00 0.00 0.00 0.01 0.05 0.03 0.00 0.00 0.00 0.00 0.00 0.01 0.01 0.00 0.00 0.01 0.03 0.03 0.02 0.03
0.00 0.00 0.00 0.00 0.00 0.00 0.00 0.00 0.00 0.00 0.00 0.00 0.00 0.00 0.00 0.00 0.00 0.03 0.03 0.01 0.01 0.00 0.00 0.00 0.01 0.02 0.02 0.04 0.03 0.01 0.01 0.00 0.00 0.00 0.00 0.02 0.03 0.02 0.03 0.04 0.01 0.01 0.01
0.00 0.00 0.00 0.00 0.00 0.00 0.00 0.00 0.00 0.00 0.00 0.00 0.00 0.00 0.00 0.00 0.01 0.02 0.02 0.02 0.01 0.01 0.01 0.00 0.00 0.01 0.04 0.05 0.05 0.02 0.00 0.00 0.00 0.00 0.00 0.01 0.01 0.01 0.02 0.03 0.01 0.00 0.01
0.00 0.00 0.00 0.00 0.00 0.00 0.00 0.00 0.00 0.00 0.00 0.00 0.00 0.00 0.01 0.01 0.01 0.01 0.02 0.04 0.03 0.02 0.01 0.00 0.00 0.00 0.01 0.01 0.02 0.02 0.03 0.04 0.02 0.00 0.00 0.00 0.01 0.00 0.02 0.02 0.01 0.00 0.01
0.00 0.00 0.00 0.00 0.00 0.00 0.00 0.00 0.00 0.00 0.00 0.00 0.00 0.01 0.01 0.00 0.00 0.01 0.01 0.03 0.03 0.02 0.00 0.00 0.00 0.00 0.01 0.02 0.04 0.07 0.06 0.02 0.01 0.00 0.00 0.00 0.00 0.00 0.01 0.02 0.00 0.00 0.00
0.00 0.00 0.00 0.00 0.00 0.00 0.00 0.00 0.00 0.00 0.00 0.00 0.01 0.01 0.00 0.00 0.01 0.01 0.01 0.01 0.01 0.01 0.02 0.00 0.01 0.02 0.01 0.01 0.00 0.00 0.01 0.03 0.01 0.00 0.00 0.00 0.00 0.00 0.02 0.01 0.01 0.01 0.00
0.00 0.00 0.00 0.00 0.00 0.00 0.00 0.00 0.01 0.00 0.02 0.02 0.01 0.02 0.01 0.01 0.02 0.03 0.03 0.01 0.01 0.01 0.01 0.00 0.00 0.00 0.00 0.00 0.00 0.00 0.00 0.01 0.01 0.00 0.00 0.00 0.00 0.00 0.01 0.01 0.01 0.01 0.01
0.00 0.00 0.00 0.00 0.00 0.00 0.00 0.00 0.01 0.02 0.03 0.03 0.03 0.04 0.01 0.01 0.02 0.02 0.02 0.02 0.02 0.01 0.00 0.00 0.00 0.00 0.00 0.00 0.00 0.00 0.00 0.00 0.00 0.00 0.00 0.00 0.00 0.00 0.00 0.00 0.00 0.00 0.00
0.00 0.00 0.00 0.00 0.00 0.00 0.00 0.00 0.00 0.00 0.01 0.02 0.02 0.03 0.01 0.01 0.01 0.01 0.02 0.01 0.01 0.01 0.00 0.00 0.00 0.00 0.00 0.00 0.00 0.00 0.00 0.00 0.00 0.00 0.00 0.00 0.00 0.00 0.00 0.00 0.00 0.00 0.00
0.00 0.00 0.00 0.00 0.00 0.00 0.00 0.00 0.00 0.00 0.00 0.00 0.01 0.02 0.02 0.00 0.00 0.00 0.01 0.00 0.00 0.00 0.00 0.00 0.00 0.00 0.00 0.00 0.00 0.00 0.00 0.00 0.00 0.00 0.00 0.00 0.00 0.00 0.00 0.00 0.00 0.00 0.00
0.00 0.00 0.00 0.00 0.00 0.00 0.00 0.00 0.00 0.00 0.00 0.00 0.01 0.00 0.01 0.00 0.00 0.00 0.00 0.00 0.00 0.00 0.00 0.00 0.00 0.00 0.00 0.00 0.00 0.00 0.00 0.00 0.00 0.00 0.00 0.00 0.00 0.00 0.00 0.00 0.00 0.00 0.00
0.00 0.00 0.00 0.00 0.00 0.00 0.00 0.00 0.00 0.00 0.00 0.01 0.01 0.00 0.01 0.00 0.00 0.00 0.00 0.01 0.00 0.00 0.00 0.00 0.00 0.00 0.00 0.00 0.00 0.00 0.00 0.00 0.00 0.00 0.00 0.00 0.00 0.00 0.00 0.01 0.00 0.00 0.00
0.00 0.00 0.00 0.00 0.00 0.00 0.00 0.00 0.00 0.00 0.00 0.01 0.00 0.00 0.01 0.00 0.00 0.00 0.00 0.00 0.00 0.00 0.00 0.00 0.00 0.00 0.00 0.00 0.00 0.00 0.00 0.00 0.00 0.00 0.00 0.00 0.00 0.00 0.00 0.01 0.01 0.01 0.00
0.00 0.00 0.00 0.00 0.00 0.00 0.00 0.00 0.00 0.00 0.00 0.00 0.00 0.00 0.00 0.00 0.01 0.00 0.00 0.00 0.00 0.00 0.00 0.00 0.00 0.00 0.00 0.00 0.00 0.00 0.00 0.00 0.00 0.00 0.00 0.00 0.00 0.00 0.00 0.01 0.01 0.01 0.00
0.00 0.00 0.00 0.00 0.00 0.01 0.00 0.00 0.00 0.00 0.00 0.00 0.00 0.00 0.00 0.01 0.01 0.00 0.00 0.00 0.00 0.00 0.00 0.00 0.00 0.00 0.00 0.00 0.00 0.00 0.00 0.00 0.00 0.00 0.00 0.00 0.00 0.00 0.00 0.00 0.00 0.00 0.00
0.00 0.00 0.00 0.00 0.00 0.00 0.00 0.00 0.00 0.00 0.00 0.00 0.00 0.01 0.01 0.00 0.00 0.00 0.00 0.00 0.00 0.00 0.00 0.00 0.00 0.00 0.00 0.00 0.00 0.00 0.00 0.00 0.00 0.00 0.00 0.00 0.00 0.00 0.00 0.00 0.00 0.00 0.01
0.00 0.00 0.00 0.00 0.00 0.00 0.00 0.00 0.00 0.00 0.00 0.01 0.00 0.01 0.00 0.00 0.00 0.00 0.00 0.00 0.00 0.00 0.00 0.00 0.00 0.00 0.00 0.00 0.00 0.00 0.00 0.00 0.00 0.00 0.00 0.00 0.00 0.00 0.00 0.00 0.00 0.01 0.00
0.00 0.00 0.00 0.00 0.00 0.00 0.00 0.00 0.00 0.00 0.00 0.00 0.00 0.00 0.00 0.00 0.00 0.00 0.00 0.00 0.00 0.00 0.00 0.00 0.00 0.00 0.00 0.00 0.00 0.00 0.00 0.00 0.00 0.00 0.00 0.00 0.00 0.00 0.00 0.00 0.00 0.01 0.01
MSLP
1021.70 1021.71 1021.67 1021.65 1021.64 1021.55 1021.33 1020.99 1020.58 1020.11 1019.68 1019.20 1018.69 1018.18 1017.77 1017.40 1017.05 1016.54 1016.03 1015.60 1015.25 1014.88 1014.66 1014.35 1014.04 1013.99 1013.65 1013.46 1013.32 1013.14 1012.76 1012.38 1011.06 1011.09 1011.04 1010.92 1010.59 1010.51 1010.11 1009.69 1009.51 1009.42 1009.28
1021.72 1021.68 1021.59 1021.55 1021.43 1021.22 1020.90 1020.49 1020.04 1019.49 1019.02 1018.56 1018.06 1017.58 1017.05 1016.55 1016.06 1015.54 1015.00 1014.63 1014.17 1013.70 1013.35 1013.07 1012.85 1012.66 1012.42 1012.29 1012.24 1012.09 1011.88 1011.53 1010.95 1010.40 1010.46 1010.44 1010.20 1009.95 1009.74 1009.48 1009.19 1008.77 1008.49
1021.74 1021.64 1021.47 1021.28 1021.07 1020.75 1020.38 1019.97 1019.46 1018.91 1018.40 1017.89 1017.39 1016.76 1016.10 1015.48 1014.94 1014.49 1013.93 1013.39 1013.00 1012.52 1012.16 1011.89 1011.59 1011.42 1011.21 1011.18 1011.15 1011.02 1010.90 1010.64 1010.36 1010.09 1009.87 1009.98 1009.87 1009.67 1009.13 1008.81 1008.60 1008.42 1008.05
1021.64 1021.50 1021.24 1020.96 1020.72 1020.38 1019.96 1019.45 1018.92 1018.43 1017.79 1017.10 1016.45 1015.79 1015.21 1014.57 1013.83 1013.23 1012.76 1012.29 1011.90 1011.42 1010.98 1010.63 1010.32 1010.02 1009.70 1009.62 1009.65 1009.72 1009.63 1009.39 1009.31 1009.21 1009.10 1009.09 1009.00 1008.82 1008.68 1008.08 1007.51 1007.64 1007.40
1021.44 1021.19 1020.90 1020.71 1020.43 1020.04 1019.51 1018.91 1018.32 1017.76 1017.02 1016.32 1015.62 1014.93 1014.16 1013.58 1012.87 1012.27 1011.66 1011.01 1010.50 1009.96 1009.54 1009.13 1008.82 1008.54 1008.20 1007.88 1007.92 1008.05 1008.23 1008.21 1008.15 1008.30 1008.22 1008.10 1007.93 1007.91 1007.56 1007.40 1007.10 1006.92 1006.61
1021.26 1021.07 1020.87 1020.51 1020.09 1019.59 1018.97 1018.32 1017.59 1016.89 1016.20 1015.56 1014.85 1014.05 1013.18 1012.62 1011.96 1011.17 1010.43 1009.70 1009.03 1008.38 1007.69 1007.19 1006.79 1006.55 1006.24 1006.02 1005.82 1005.80 1006.57 1006.56 1006.75 1007.12 1007.13 1006.94 1006.85 1006.82 1006.93 1006.77 1006.60 1006.18 1005.56
1021.16 1020.89 1020.59 1020.19 1019.64 1019.05 1018.39 1017.68 1016.94 1016.12 1015.53 1014.83 1013.93 1013.24 1012.45 1011.78 1011.02 1010.06 1009.17 1008.40 1007.79 1007.03 1006.33 1005.77 1005.26 1004.91 1004.76 1004.61 1004.63 1004.57 1004.42 1004.43 1004.81 1005.75 1005.78 1005.73 1005.83 1005.69 1006.11 1005.93 1005.84 1005.54 1005.02
1020.97 1020.61 1020.25 1019.78 1019.18 1018.46 1017.75 1017.01 1016.23 1015.44 1014.63 1013.88 1013.14 1012.55 1011.83 1010.99 1010.18 1009.21 1008.21 1007.27 1006.53 1005.75 1005.08 1004.45 1003.85 1003.41 1003.27 1003.25 1003.42 1003.78 1003.94 1004.06 1004.10 1004.40 1004.62 1004.84 1004.90 1004.96 1005.12 1005.07 1005.09 1005.08 1004.83
1020.62 1020.28 1019.86 1019.34 1018.60 1017.89 1017.08 1016.24 1015.45 1014.82 1013.91 1013.20 1012.60 1011.92 1011.15 1010.23 1009.33 1008.27 1007.30 1006.33 1005.39 1004.39 1003.47 1002.64 1001.88 1001.57 1001.65 1001.80 1002.16 1002.81 1003.08 1003.22 1003.39 1003.39 1003.37 1003.51 1003.69 1003.91 1004.34 1004.43 1004.23 1004.38 1004.47
1020.36 1019.96 1019.49 1018.86 1018.17 1017.37 1016.55 1015.71 1014.94 1014.14 1013.46 1012.79 1011.96 1011.28 1010.47 1009.42 1008.57 1007.50 1006.48 1005.44 1004.25 1002.86 1001.93 1000.41 999.39 999.80 1000.29 1000.81 1001.22 1001.64 1002.02 1002.23 1002.46 1002.54 1002.57 1002.53 1002.54 1002.70 1002.90 1003.30 1003.51 1003.63 1003.66
1020.03 1019.55 1018.95 1018.36 1017.72 1016.95 1015.96 1015.03 1014.25 1013.69 1013.01 1012.23 1011.42 1010.58 1009.68 1008.83 1007.77 1006.86 1005.75 1004.64 1003.46 1002.05 1000.69 999.24 998.61 999.17 999.58 1000.04 1000.42 1000.84 1001.03 1001.27 1001.46 1001.63 1001.69 1001.92 1002.07 1001.68 1001.88 1002.31 1002.54 1002.83 1003.19
1019.70 1019.08 1018.47 1017.87 1017.19 1016.30 1015.38 1014.53 1013.84 1013.24 1012.49 1011.60 1010.78 1009.77 1008.89 1008.15 1007.41 1006.49 1005.39 1004.21 1002.85 1001.67 1000.98 1000.40 1000.11 1000.06 999.89 999.93 999.91 1000.05 1000.12 1000.29 1000.60 1000.84 1001.06 1001.32 1001.49 1001.47 1001.55 1001.40 1001.57 1002.23 1002.53
1019.28 1018.62 1018.03 1017.34 1016.38 1015.62 1014.87 1014.08 1013.49 1012.77 1012.03 1011.13 1010.20 1009.20 1008.48 1007.68 1006.92 1006.05 1005.23 1004.20 1003.04 1001.92 1001.19 1000.83 1000.68 1000.43 1000.10 999.92 1000.02 999.87 999.86 999.82 999.93 1000.54 1000.63 1000.85 1001.08 1001.32 1000.96 1000.83 1001.40 1001.85 1002.14
1018.88 1018.30 1017.67 1016.68 1015.77 1015.22 1014.52 1014.02 1013.24 1012.39 1011.54 1010.62 1009.72 1008.94 1008.06 1007.44 1006.75 1005.89 1005.13 1004.37 1003.43 1002.13 1001.25 1000.98 1000.65 1000.31 1000.02 1000.03 1000.13 1000.10 999.72 999.37 999.62 1000.01 1000.41 1000.70 1000.96 1000.78 1000.58 1000.93 1001.39 1001.95 1001.85
1018.72 1018.05 1017.12 1016.31 1015.58 1014.88 1014.26 1013.65 1012.89 1012.10 1011.18 1010.22 1009.48 1008.72 1008.09 1007.31 1006.58 1005.82 1005.04 1004.40 1003.67 1002.56 1001.54 1001.39 1001.06 1000.74 1000.52 1000.28 1000.25 1000.26 999.97 999.65 999.56 999.92 1000.25 1000.65 1000.89 1000.92 1000.92 1001.04 1001.34 1001.53 1001.65
1018.34 1017.57 1016.78 1016.05 1015.48 1014.75 1013.98 1013.08 1012.48 1011.68 1010.86 1010.17 1009.44 1008.54 1007.99 1007.14 1006.13 1005.49 1004.93 1004.46 1003.90 1002.92 1002.08 1001.77 1001.58 1001.26 1000.98 1000.75 1000.48 1000.26 1000.01 999.67 999.50 999.84 1000.29 1000.57 1000.80 1001.16 1001.14 1001.26 1001.44 1001.97 1002.14
1018.04 1017.34 1016.60 1016.08 1015.31 1014.53 1013.78 1012.94 1011.98 1011.08 1010.75 1010.14 1009.39 1008.48 1007.76 1007.13 1006.34 1005.70 1005.15 1004.84 1004.26 1003.54 1002.99 1002.43 1002.08 1001.74 1001.36 1001.07 1000.81 1000.56 1000.59 1000.18 999.96 1000.01 1000.28 1000.52 1000.95 1001.23 1001.43 1001.72 1002.42 1002.66 1002.64
1017.71 1017.14 1016.47 1015.80 1015.08 1014.43 1013.65 1012.85 1012.09 1011.24 1010.50 1009.84 1009.30 1008.60 1007.83 1007.23 1006.59 1006.02 1005.55 1005.08 1004.44 1003.98 1003.63 1003.11 1002.67 1002.28 1001.95 1001.56 1000.98 1000.79 1000.71 1000.56 1000.21 1000.22 1000.38 1000.78 1001.19 1001.33 1001.63 1002.07 1002.60 1002.84 1003.07
1017.40 1016.74 1016.10 1015.45 1014.92 1014.29 1013.51 1012.75 1012.06 1011.38 1010.73 1009.97 1009.29 1008.60 1007.88 1007.26 1006.79 1006.26 1005.77 1005.46 1004.97 1004.41 1003.96 1003.53 1003.15 1002.75 1002.35 1002.00 1001.60 1001.12 1000.98 1001.00 1000.95 1000.78 1000.81 1001.05 1001.38 1001.57 1001.80 1002.15 1002.56 1003.04 1003.41
1017.05 1016.55 1015.95 1015.27 1014.78 1014.15 1013.38 1012.64 1012.01 1011.42 1010.74 1010.10 1009.47 1008.68 1007.82 1007.14 1006.68 1006.32 1005.95 1005.55 1005.08 1004.59 1004.15 1003.71 1003.28 1002.91 1002.55 1002.21 1001.91 1001.58 1001.19 1000.90 1000.95 1001.07 1001.25 1001.38 1001.52 1001.66 1001.85 1002.13 1002.54 1003.00 1003.43
1016.87 1016.51 1015.82 1015.25 1014.70 1014.10 1013.35 1012.65 1012.05 1011.47 1010.78 1010.19 1009.51 1008.86 1007.91 1007.50 1006.98 1006.64 1006.14 1005.61 1005.06 1004.52 1004.04 1003.59 1003.20 1002.82 1002.51 1002.24 1001.98 1001.75 1001.46 1001.15 1000.85 1000.94 1001.29 1001.58 1001.75 1001.99 1002.09 1002.31 1002.64 1002.97 1003.38
1016.93 1016.38 1015.82 1015.21 1014.71 1014.00 1013.41 1012.74 1012.09 1011.48 1010.90 1010.19 1009.42 1008.81 1008.15 1007.71 1007.23 1006.74 1006.21 1005.59 1004.96 1004.37 1003.87 1003.37 1002.89 1002.53 1002.24 1001.98 1001.79 1001.63 1001.41 1001.15 1000.90 1000.80 1001.05 1001.42 1001.66 1001.95 1002.22 1002.36 1002.66 1003.00 1003.48
1016.71 1016.30 1015.73 1015.17 1014.75 1014.05 1013.46 1012.86 1012.15 1011.56 1010.89 1010.19 1009.58 1008.78 1008.30 1007.84 1007.30 1006.78 1006.17 1005.42 1004.64 1003.91 1003.31 1002.85 1002.35 1001.99 1001.72 1001.53 1001.37 1001.25 1001.12 1000.98 1000.83 1000.76 1000.70 1001.15 1001.51 1001.89 1002.25 1002.45 1002.74 1003.03 1003.42
1016.57 1016.23 1015.71 1015.24 1014.77 1014.20 1013.61 1012.99 1012.35 1011.73 1011.07 1010.27 1009.65 1009.03 1008.72 1008.02 1007.46 1006.76 1005.94 1005.09 1004.21 1003.42 1002.72 1002.11 1001.64 1001.24 1000.98 1000.69 1000.61 1000.58 1000.59 1000.62 1000.65 1000.68 1000.78 1000.84 1001.35 1001.85 1002.31 1002.55 1002.62 1002.93 1003.20
1016.58 1016.18 1015.70 1015.27 1014.77 1014.37 1013.80 1013.16 1012.56 1011.91 1011.23 1010.55 1009.96 1009.54 1008.88 1008.24 1007.52 1006.70 1005.83 1004.87 1003.88 1002.91 1002.02 1001.32 1000.68 1000.25 999.95 999.62 999.54 999.65 999.83 1000.01 1000.27 1000.42 1000.63 1000.63 1000.93 1001.41 1001.88 1002.35 1002.52 1002.77 1003.16
1016.46 1016.06 1015.74 1015.34 1014.88 1014.35 1013.91 1013.39 1012.81 1012.19 1011.51 1011.03 1010.27 1009.77 1009.04 1008.45 1007.71 1006.82 1005.85 1004.78 1003.64 1002.46 1001.50 1000.55 999.86 999.24 998.49 997.81 997.69 998.16 998.70 999.26 999.84 1000.04 1000.23 1000.29 1000.55 1000.99 1001.35 1001.82 1002.33 1002.50 1002.87
Thickness
5526 5519 5513 5507 5500 5493 5488 5483 5479 5476 5471 5466 5461 5457 5451 5444 5437 5433 5428 5423 5418 5415 5412 5409 5407 5402 5402 5400 5398 5397 5401 5405 5423 5421 5424 5426 5432 5437 5445 5453 5460 5469 5483
5512 5506 5499 5492 5485 5480 5475 5470 5465 5461 5455 5449 5444 5438 5432 5427 5422 5418 5416 5412 5410 5407 5404 5402 5399 5396 5396 5394 5393 5393 5394 5399 5408 5413 5413 5414 5418 5423 5430 5437 5442 5454 5468
5497 5491 5484 5478 5473 5468 5462 5457 5451 5446 5440 5434 5427 5423 5419 5416 5413 5409 5407 5405 5401 5399 5397 5395 5394 5393 5392 5389 5386 5386 5387 5390 5395 5399 5402 5401 5405 5408 5419 5426 5432 5439 5452
5483 5477 5471 5466 5459 5454 5448 5442 5436 5430 5425 5421 5416 5412 5409 5408 5406 5403 5399 5396 5393 5392 5392 5392 5391 5390 5390 5387 5384 5380 5380 5384 5387 5388 5391 5392 5396 5398 5402 5415 5426 5430 5441
5470 5464 5458 5451 5444 5438 5433 5428 5423 5416 5412 5408 5405 5403 5402 5399 5397 5394 5392 5392 5391 5392 5392 5391 5390 5387 5386 5385 5381 5377 5374 5375 5376 5375 5379 5383 5387 5387 5393 5399 5408 5416 5431
5455 5448 5440 5435 5429 5424 5419 5414 5410 5406 5401 5399 5397 5395 5395 5391 5388 5388 5387 5388 5390 5392 5393 5394 5393 5390 5386 5383 5381 5379 5370 5370 5369 5366 5369 5375 5377 5377 5378 5384 5391 5401 5424
5439 5432 5424 5418 5414 5409 5404 5400 5397 5395 5392 5390 5390 5387 5386 5384 5383 5385 5386 5387 5387 5390 5391 5391 5389 5386 5383 5380 5376 5373 5372 5370 5367 5360 5363 5366 5367 5371 5369 5376 5381 5390 5408
5422 5415 5407 5401 5397 5393 5390 5387 5386 5386 5386 5384 5382 5379 5378 5379 5378 5381 5383 5385 5386 5388 5388 5387 5386 5384 5379 5372 5366 5360 5358 5356 5358 5357 5358 5360 5360 5361 5364 5368 5373 5377 5387
5405 5397 5389 5383 5381 5378 5378 5377 5378 5377 5378 5376 5373 5372 5372 5374 5375 5378 5379 5382 5384 5386 5387 5388 5388 5385 5375 5367 5359 5353 5350 5350 5350 5353 5356 5357 5358 5360 5361 5363 5370 5372 5376
5387 5379 5372 5368 5367 5368 5368 5369 5370 5370 5369 5366 5367 5366 5367 5370 5371 5374 5376 5378 5382 5387 5390 5396 5397 5385 5373 5364 5357 5352 5349 5348 5347 5348 5350 5354 5357 5362 5365 5366 5371 5375 5382
5371 5366 5362 5359 5359 5360 5363 5364 5364 5361 5359 5360 5362 5363 5365 5365 5369 5370 5373 5374 5377 5384 5389 5396 5393 5379 5370 5363 5357 5352 5349 5347 5346 5346 5349 5351 5355 5366 5370 5373 5378 5381 5384
5361 5358 5356 5355 5354 5356 5357 5357 5356 5353 5354 5357 5358 5362 5364 5364 5362 5362 5364 5367 5372 5376 5376 5376 5371 5364 5361 5356 5354 5351 5350 5349 5348 5349 5350 5351 5357 5364 5371 5381 5385 5386 5391
5354 5354 5353 5352 5353 5352 5351 5350 5348 5348 5350 5352 5355 5360 5361 5359 5357 5355 5353 5356 5361 5365 5368 5366 5359 5354 5352 5350 5348 5349 5349 5351 5353 5349 5354 5358 5362 5366 5377 5386 5388 5388 5397
5350 5349 5348 5351 5351 5347 5344 5341 5341 5344 5347 5350 5352 5351 5351 5348 5345 5345 5345 5346 5349 5356 5361 5359 5354 5351 5350 5347 5345 5347 5352 5355 5356 5359 5359 5362 5365 5374 5383 5386 5390 5393 5403
5344 5344 5347 5347 5345 5342 5339 5338 5339 5340 5343 5346 5345 5344 5340 5339 5337 5336 5336 5336 5339 5346 5353 5350 5348 5346 5345 5346 5346 5346 5350 5354 5361 5362 5365 5366 5370 5375 5382 5387 5390 5396 5405
5342 5343 5343 5342 5337 5336 5337 5339 5337 5339 5341 5341 5340 5339 5336 5335 5336 5335 5332 5330 5330 5337 5344 5344 5342 5341 5342 5343 5346 5349 5351 5357 5362 5366 5366 5370 5371 5374 5382 5387 5390 5394 5401
5338 5338 5337 5333 5332 5333 5334 5337 5341 5341 5338 5337 5336 5337 5335 5334 5333 5331 5328 5325 5325 5329 5333 5335 5336 5337 5341 5344 5346 5348 5347 5352 5358 5365 5368 5372 5372 5377 5380 5384 5384 5389 5397
5335 5333 5331 5329 5329 5329 5331 5334 5336 5338 5339 5337 5334 5334 5334 5333 5331 5328 5325 5322 5322 5324 5326 5329 5330 5331 5334 5340 5348 5351 5351 5353 5358 5364 5370 5371 5373 5377 5379 5381 5383 5387 5392
5332 5331 5330 5329 5327 5327 5329 5331 5332 5332 5332 5334 5333 5333 5333 5333 5331 5327 5324 5320 5320 5321 5323 5325 5326 5328 5329 5334 5342 5349 5352 5354 5357 5362 5368 5371 5373 5376 5379 5381 5384 5386 5389
5331 5327 5326 5326 5325 5325 5328 5330 5331 5330 5331 5331 5331 5333 5335 5336 5332 5328 5325 5323 5322 5321 5321 5323 5325 5327 5328 5331 5337 5344 5352 5359 5361 5363 5366 5369 5373 5376 5380 5383 5384 5386 5389
5329 5324 5324 5323 5323 5324 5327 5329 5329 5329 5330 5330 5331 5331 5335 5334 5332 5329 5327 5326 5325 5325 5325 5325 5327 5328 5329 5331 5335 5341 5349 5356 5364 5366 5367 5367 5370 5371 5377 5380 5383 5387 5389
5324 5322 5321 5321 5321 5324 5326 5327 5327 5328 5329 5330 5331 5331 5333 5334 5333 5332 5332 5331 5330 5329 5329 5329 5331 5332 5333 5335 5337 5341 5347 5354 5361 5367 5367 5367 5368 5370 5372 5377 5381 5385 5387
5323 5320 5320 5320 5320 5324 5324 5325 5326 5328 5330 5331 5332 5335 5335 5335 5336 5336 5337 5337 5339 5339 5339 5338 5339 5340 5342 5343 5345 5347 5349 5353 5358 5363 5368 5368 5369 5370 5371 5375 5377 5381 5385
5322 5318 5318 5318 5319 5321 5323 5324 5325 5328 5330 5334 5336 5337 5335 5338 5338 5339 5343 5346 5349 5351 5351 5351 5351 5352 5352 5355 5356 5356 5357 5359 5361 5364 5367 5371 5371 5370 5370 5372 5377 5379 5384
5320 5317 5317 5318 5320 5320 5321 5323 5324 5327 5331 5334 5337 5336 5338 5340 5341 5344 5348 5353 5358 5362 5365 5366 5367 5367 5367 5368 5369 5369 5368 5366 5367 5369 5371 5375 5376 5374 5373 5372 5375 5379 5382
5319 5317 5316 5316 5318 5320 5321 5322 5324 5327 5330 5333 5337 5338 5341 5342 5345 5349 5354 5359 5365 5371 5376 5380 5383 5384 5387 5389 5389 5385 5380 5376 5375 5375 5377 5379 5379 5378 5377 5376 5376 5381 5383